Погода в Ставросе

Греция     40°39′54″N   23°41′51″E
темп.,
°C
ветер,
м/с
пор.,
м/с
влажн.,
%
обл.,
%
осадки,
мм/ч
давл.,
гПа
погр.,
м
17 июня, чт
чт1700:00+18ссв118036 0.4 101624
03:00+17сз22805 0.4 101629
06:00+16сз33865 0.0 101655
09:00+21ссз22715 0.0 1017284
12:00+24вюв22595 0.0 1017831
15:00+23юв336143 0.1 1016547
18:00+22вюв237032 2.8 1016243
21:00+20ссз338182 3.8 101754
18 июня, пт
пт1800:00+18сз3389100 0.9 101797
03:00+18сз338489 0.9 101663
06:00+17сз23845 0.0 101660
09:00+21ссз227214 0.0 1016297
12:00+25св1255100 0.0 1015846
15:00+25юв2357100 0.0 1014965
18:00+22вюв3471100 0.1 1013214
21:00+19ююв0188100 3.5 101468
19 июня, сб
сб1900:00+19юз0183100 0.4 101433
03:00+20з118099 0.4 101332
06:00+19сз118275 0.0 101330
09:00+22с117459 0.0 1014294
12:00+24вюв216412 0.1 1013825
15:00+23юв327114 1.6 1012559
18:00+23юв337752 1.6 1011313
21:00+20в2397100 14.9 1012148
20 июня, вс
вс2000:00+19з129499 1.3 101270
03:00+19зсз229312 3.1 101266
06:00+18сз229442 0.1 101254
09:00+21с228419 0.3 1012388
12:00+24вюв116911 0.3 1012770
15:00+23юв33713 2.1 1012610
18:00+23юв33711 0.3 1011347
21:00+20ю118317 1.2 101119
21 июня, пн
пн2100:00+19юв11860 1.3 101227
03:00+19сз11840 1.3 101229
06:00+18ссз22880 0.0 101252
09:00+22ссз12770 0.0 1013297
12:00+25вюв21620 0.0 1013843
15:00+26юв22590 0.0 1012892
18:00+24вюв34692 0.0 1012268
21:00+22вюв1282100 0.1 101222